User: anonymous   Login
Location: Guayaquil
(2.1667°S, 79.9000°W)
Time: 09:54:52
(UTC-05:00)
Language:

NEE 01 PEGASUS - Orbit

View from above orbital plane
View from above orbital plane
View from above satellite
View from above satellite

Ground track
Ground track

The orbit data is extracted from the following two-line orbital elements,

1 39151U 13018B   18196.96935241  .00000130  00000-0  24210-4 0  9993
2 39151  97.9761 290.8335 0016387 211.3839 148.6396 14.79917379281771
Epoch (UTC): 15 July 2018 23:15:52
Eccentricity: 0.0016387
inclination: 97.9761°
perigee height: 618 km
apogee height: 641 km
right ascension of ascending node: 290.8335°
argument of perigee: 211.3839°
revolutions per day: 14.79917379
mean anomaly at epoch: 148.6396°
orbit number at epoch: 28177

The dashed part of the orbit path shows where the satellite is in the earth's shadow,  

DLR